OBJECT AC, 61761

Orbit data source: Space-Track

You're viewing an Uncataloged Satellite

Recently launched and/or uncataloged satellites may have evolving metadata. Metadata may include but not limited to: Owner, Maufacturer, Bus, Motor, and Mission.

OBJECT AC, 61761 is a satellite in SSO that was launched on Mon, 04 Nov 2024 UTC via a SOYUZ-2-1B launch vehicle from the Vostochny Cosmodrome (VOSTO). Unknown objects in Earth's orbit typically refer to objects detected orbiting the Earth but have not yet been identified or cataloged. These objects could be anything from previously untracked satellites, spent rocket stages, debris from satellite collisions, or even natural meteoroids temporarily captured by Earth's gravity.

Loading next visibility...
Identifier
61761, 2024-199AC
Orbit
SSO
Country
Flag of TBDTBD
Related business
None
Manufacturer
Unknown
Mission
Operational Commercial Technology
Bus & Motor
Unknown
Mass
Unknown
Launch date (UTC)
2024-11-04 (2 years ago)
Launch vehicle
SOYUZ-2-1B
Launch site
Vostochny Cosmodrome (VOSTO)
Object type
Unknown
Shape & HBR
Box, 0.1 m
Radar Cross Section
0.035 m², Small (<0.1 m²)

Expand to show TLE details & history
Last TLE update: 8 hours ago

TLE from 8 hours ago
0 OBJECT AC
1 61761U 24199AC  26127.93290564  .00033306  00000-0  51374-3 0  9990
2 61761  97.2976   3.6374 0007559  73.0025 287.2057 15.54055918131356
Epoch: 2026-05-07T22:23Z
TLE epoch observation values (Epoch: 2026-05-07T22:23:23.047Z)
Latitude
0.00002°
Longitude
162.01942°
Altitude
406.524 km
Speed
7.668 km/s
True Right ascension
00h 14m 32s
True Declination
0° 00' 00"
Sunlit
Object was in daylight at epoch
Visualization orbit readout
Latitude
Unknown
Longitude
Unknown
Altitude
Unknown
Speed
Unknown
Apparent Right ascension
Unknown
Apparent Declination
Unknown
Sunlit
N/A
Visualization observer readout
Local Sidereal Time
14:31:47
Azimuth
Unknown
Elevation
Unknown
Doppler factor
Unknown
Orbital elements
Apogee altitude
406.939 km
Perigee altitude
396.689 km
Semi-major axis
6,779.951 km
Eccentricity
0.00076
Inclination
97.2976°
RAAN
3.6374°
Arg. of periapsis
73.0025°
True anomaly
287.12293°
Mean anomaly
287.2057°
Eccentric anomaly
287.16432°
Mean motion
3.88779 °/min
Orbital period
92.6 mins
BSTAR
0.00051374
Loading maneuver chart data...
Computing Atmospheric mass density...
Loading historical data...
Loading historical data...
Loading historical data...
Loading historical data...
Loading historical data...
Loading historical data...
Loading historical data...

Documentation

Showing up to 5 results
|